Find Starlink 1262

NORAD ID: 45366 Int'l Des: 2020-019 Owner: SPXS Country: US Constellation: starlink operational
LEOCIRCULAR

Live-Position

3D-Globus wird geladen...

Über Starlink 1262

Beschreibung wird geladen...

Nächste Überflüge

Passes for default location (London). Set your location on the main map for personalized predictions.

Höhenverlauf

Loading altitude history...

Zweizeiliger Elementsatz

1 45366U 20019G 26123.81295376 .00054522 00000-0 17790-2 0 9995
2 45366 53.1563 269.2191 0001466 328.2478 31.8434 15.31279063338194
Epoch: 3. Mai 2026 • Age: 17 hours

Aktueller Status

Höhe 489.8 km
Geschwindigkeit 7.62 km/s
Subsatellitenpunkt -53.14°S, 122.3°E
Startdatum 18. März 2020
Alter 6.1 years
Typ internet

Technische Details

Klassifizierung Payload
Masse 260.00 kg
Trockenmasse 248.00 kg
Gesamtmasse 260.00 kg
Länge 0.20 m
Durchmesser 2.80 m
Spannweite 9.00 m
Form Box + pan
Hersteller SPXS
Bus-Typ Starlink
Phasenstatus In Orbit
Besitzer/Staat SPXS/US

Most Searched